Tracking 22124 objects as of 23-Jan-2021
HD Live streaming from Space Station
objects crossing your sky now

FLOCK 4V 16

Track FLOCK 4V 16 now!
10-day predictions
FLOCK 4V 16 is classified as:


NORAD ID: 46527
Int'l Code: 2020-061BD
Perigee: 521.3 km
Apogee: 535.6 km
Inclination: 97.5 °
Period: 95.1 minutes
Semi major axis: 6899 km
RCS: Unknown
Launch date: September 3, 2020
Source: United States (US)
Launch site: FRENCH GUIANA (FRGUI)
aabbcc
Your satellite tracking list
Your tracking list is empty




NASA's NSSDC Master Catalog

Two Line Element Set (TLE):
1 46527U 20061BD  21022.77423823  .00001381  00000-0  77642-4 0  9999
2 46527  97.4566  99.2179 0010393  96.5985 263.6431 15.14893621 17472
Source of the keplerian elements: AFSPC